Jamestown, NY

7:10 AM EST on December 07, 2019 (GMT -0500)
Chautauqua County-Jamestown

Weather History for KJHW - October, 2019

Change the Weather History Date:

Friday, October 18, 2019

  Actual Average Record
Temperature  
Mean Temperature 42 °F -  
Max Temperature 46 °F 57 °F 74 °F (1980)
Min Temperature 35 °F 35 °F 20 °F (1985)
Degree Days  
Heating Degree Days 24    
Moisture  
Dew Point 36 °F    
Average Humidity 81    
Maximum Humidity 100    
Minimum Humidity 62    
Precipitation  
Precipitation 0.02 in - - ()
Sea Level Pressure  
Sea Level Pressure 30.02 in    
Wind  
Wind Speed 10 mph (WNW)    
Max Wind Speed 13 mph    
Max Gust Speed 18 mph    
Visibility 10 miles    
Events Rain    
Averages and records for this station are not official NWS values.
T = Trace of Precipitation, MM = Missing Value Source: NWS Daily Summary

Daily Weather History Graph

Daily Weather History Graph

Search for Another Location

Airport or City:

Astronomy

Oct. 18, 2019 Rise Set
Actual Time 7:32 AM EDT 6:30 PM EDT
Civil Twilight 7:04 AM EDT 6:59 PM EDT
Nautical Twilight 6:32 AM EDT 7:31 PM EDT
Astronomical Twilight 5:59 AM EDT 8:04 PM EDT
Moon 9:42 PM EDT (10/18) 12:08 PM EDT (10/18)
Length of Visible Light 11h 54m
Length of Day
10h 58m
Waning Gibbous, 79% of the Moon is Illuminated
Oct 18
Waning Gibbous
Oct 21
Last Quarter
Oct 27
New
Nov 4
First Quarter
Nov 12
Full

Hourly Weather History & Observations

Time (EDT) Temp. Windchill Dew Point Humidity Pressure Visibility Wind Dir Wind Speed Gust Speed Precip Events Conditions
12:56 AM 41.0 °F 33.9 °F 37.0 °F 86% 29.91 in 10.0 mi NW 12.7 mph - 0.00 in Rain Light Rain
1:56 AM 41.0 °F 36.4 °F 37.9 °F 89% 29.92 in 10.0 mi NW 6.9 mph - 0.01 in Rain Light Rain
2:29 AM 39.2 °F 32.0 °F 37.4 °F 93% 29.88 in 10.0 mi NW 11.5 mph - 0.01 in Rain Light Rain
2:56 AM 41.0 °F 34.3 °F 37.9 °F 89% 29.93 in 10.0 mi NW 11.5 mph - 0.01 in   Overcast
3:26 AM 41.0 °F 35.2 °F 37.4 °F 87% 29.89 in 8.0 mi NW 9.2 mph - 0.00 in Rain Light Rain
3:56 AM 41.0 °F 34.3 °F 37.9 °F 89% 29.94 in 10.0 mi NW 11.5 mph - 0.00 in Rain Light Rain
4:56 AM 41.0 °F 34.7 °F 37.0 °F 86% 29.96 in 10.0 mi NW 10.4 mph - 0.00 in   Overcast
5:56 AM 41.0 °F 35.2 °F 36.0 °F 82% 29.99 in 10.0 mi NW 9.2 mph - N/A   Overcast
6:56 AM 41.0 °F 35.2 °F 36.0 °F 82% 30.00 in 10.0 mi NW 9.2 mph - N/A   Overcast
7:14 AM 41.0 °F 36.4 °F 35.6 °F 81% 29.96 in 10.0 mi NW 6.9 mph - N/A   Overcast
7:28 AM 39.2 °F 33.6 °F 35.6 °F 87% 29.96 in 10.0 mi NNW 8.1 mph - N/A   Overcast
7:56 AM 39.9 °F 35.1 °F 36.0 °F 86% 30.01 in 10.0 mi NNW 6.9 mph - N/A   Overcast
8:45 AM 41.0 °F 35.8 °F 35.6 °F 81% 29.98 in 10.0 mi NNW 8.1 mph - N/A   Overcast
8:56 AM 41.0 °F 35.8 °F 36.0 °F 82% 30.04 in 10.0 mi NW 8.1 mph - N/A   Overcast
9:56 AM 42.1 °F 35.2 °F 36.0 °F 79% 30.06 in 10.0 mi NW 12.7 mph - N/A   Overcast
10:56 AM 42.1 °F 35.7 °F 34.0 °F 73% 30.06 in 10.0 mi NNW 11.5 mph - N/A   Overcast
11:56 AM 43.0 °F 36.8 °F 34.0 °F 71% 30.08 in 10.0 mi WNW 11.5 mph - N/A   Overcast
12:56 PM 43.0 °F 36.4 °F 34.0 °F 71% 30.07 in 10.0 mi NW 12.7 mph - N/A   Overcast
1:56 PM 44.1 °F 39.5 °F 33.1 °F 65% 30.07 in 10.0 mi NW 8.1 mph - N/A   Mostly Cloudy
2:56 PM 46.9 °F - 36.0 °F 66% 30.06 in 10.0 mi NW 9.2 mph 18.4 mph N/A   Overcast
3:33 PM 46.4 °F 41.9 °F 33.8 °F 62% 30.02 in 10.0 mi NW 9.2 mph - N/A   Partly Cloudy
3:56 PM 46.0 °F 40.6 °F 35.1 °F 66% 30.07 in 10.0 mi WNW 11.5 mph - N/A   Partly Cloudy
4:56 PM 46.0 °F 41.4 °F 35.1 °F 66% 30.07 in 10.0 mi West 9.2 mph - N/A   Clear
5:56 PM 45.0 °F 41.2 °F 34.0 °F 65% 30.07 in 10.0 mi WNW 6.9 mph - N/A   Clear
6:56 PM 42.1 °F 38.4 °F 34.0 °F 73% 30.07 in 10.0 mi WNW 5.8 mph - N/A   Clear
7:56 PM 42.1 °F 37.1 °F 36.0 °F 79% 30.09 in 10.0 mi WNW 8.1 mph - N/A   Clear
8:56 PM 41.0 °F 36.4 °F 36.0 °F 82% 30.09 in 10.0 mi WNW 6.9 mph - N/A   Clear
9:56 PM 39.9 °F 36.7 °F 36.0 °F 86% 30.11 in 10.0 mi WSW 4.6 mph - N/A   Clear
10:30 PM 39.2 °F 35.9 °F 35.6 °F 87% 30.07 in 10.0 mi WSW 4.6 mph - N/A   Mostly Cloudy
10:51 PM 37.4 °F 32.8 °F 35.6 °F 93% 30.07 in 10.0 mi SW 5.8 mph - N/A   Scattered Clouds
10:56 PM 37.9 °F 33.5 °F 36.0 °F 93% 30.12 in 10.0 mi SW 5.8 mph - N/A   Partly Cloudy
11:56 PM 35.1 °F 31.0 °F 35.1 °F 100% 30.11 in 10.0 mi South 4.6 mph - N/A   Clear